GFSGL_sfc_thetae_000.txt.gz
Theta_e
275 274 273 273 274 275 276 277 279 282 283 287 294 293 291 291 292 293 300 307 309 310 310 308 305 306 308 309 309 308 307 307 302 292 293 295 294 293 293 295 297 299 302
274 273 273 272 273 273 274 276 278 278 283 283 284 292 290 291 291 292 295 297 307 308 308 307 305 304 305 307 308 307 308 308 304 291 291 294 293 292 293 296 294 294 294
273 272 270 271 271 272 272 273 275 277 278 280 283 289 289 290 290 291 291 296 307 308 308 306 305 304 303 303 305 307 307 305 302 293 288 290 291 294 291 288 291 290 288
272 271 269 269 269 269 271 272 272 275 276 277 279 283 288 289 289 289 290 294 302 308 309 308 306 304 303 302 302 302 302 297 295 294 291 291 291 289 295 293 291 285 288
270 269 269 269 269 269 269 270 271 274 276 276 277 278 281 288 288 288 289 292 294 307 306 308 307 304 299 302 301 301 298 295 293 291 289 288 287 290 291 292 292 289 283
268 268 268 268 268 268 268 269 270 274 275 275 275 277 279 283 289 290 290 290 293 304 304 306 306 298 297 298 299 300 298 292 291 290 289 288 287 291 291 290 289 288 287
267 266 267 267 266 267 268 268 269 269 272 274 274 276 278 281 287 291 290 290 292 303 304 303 303 302 297 299 298 297 297 297 296 293 289 290 288 290 290 289 289 289 290
266 265 266 265 265 266 267 267 268 269 271 274 274 275 278 285 290 291 290 290 292 300 303 303 302 299 298 297 296 295 294 295 294 294 292 292 290 292 291 290 290 286 285
265 265 264 265 263 264 264 265 267 267 269 271 275 275 279 283 289 290 290 289 291 299 301 302 302 298 298 297 294 292 291 292 295 295 295 295 294 294 293 289 288 287 279
264 264 264 263 262 262 264 264 266 266 268 271 275 277 279 282 287 288 290 289 291 298 297 297 296 298 296 298 295 293 290 291 291 289 289 293 293 293 293 291 290 287 284
263 263 262 262 262 264 266 267 266 266 269 270 275 277 281 284 286 289 291 290 296 297 296 296 299 297 296 298 298 294 294 292 293 292 291 291 290 290 291 291 290 291 288
261 260 260 261 266 267 268 269 271 268 269 273 275 277 280 283 285 289 292 293 298 295 295 296 297 295 296 298 297 297 297 293 293 293 291 290 289 289 290 290 289 291 293
257 258 260 264 265 267 267 269 273 272 272 277 279 281 282 287 289 291 292 294 297 295 296 295 295 294 295 297 298 296 293 292 292 291 291 291 291 291 290 289 285 281 279
256 258 261 262 263 265 267 268 270 274 279 281 281 284 285 288 289 291 291 295 294 295 292 293 294 293 294 295 293 293 294 293 292 292 291 292 291 289 288 288 287 287 285
257 260 260 262 262 263 265 266 268 271 275 278 284 285 285 286 289 291 292 293 292 294 291 291 291 291 291 291 292 292 292 291 290 291 291 289 289 287 287 287 287 286 286
257 259 260 260 262 262 263 263 268 271 274 275 277 277 283 288 291 292 293 294 294 293 290 290 290 290 290 290 289 290 290 290 290 290 289 288 287 286 286 286 287 285 285
257 258 259 259 260 260 261 261 260 264 268 272 273 273 278 285 288 292 293 293 293 293 290 290 290 290 290 290 290 291 290 291 291 290 289 288 288 287 287 285 286 285 285
257 258 258 258 259 259 259 259 260 259 258 260 267 269 271 275 277 281 290 293 289 291 289 289 289 290 290 290 290 290 291 290 290 290 290 289 288 287 286 286 286 285 285
256 257 257 257 258 258 258 258 258 258 258 258 262 264 263 269 270 271 271 267 273 272 274 286 288 289 290 290 290 290 290 290 290 289 289 289 288 288 287 287 286 286 285
255 257 257 256 257 256 257 256 256 256 256 256 257 260 259 260 258 259 260 261 262 264 265 266 268 271 283 289 289 289 289 289 289 289 289 289 289 288 288 287 286 286 285
254 255 256 255 255 255 255 255 255 255 254 255 255 261 264 256 256 257 257 258 259 261 263 265 265 265 267 269 282 288 288 289 289 289 289 288 288 287 288 288 287 286 286
253 253 254 254 255 255 254 254 254 254 254 253 254 256 261 255 255 255 256 256 257 259 261 262 265 265 265 266 267 271 280 284 286 287 287 287 287 286 286 286 285 285 284
253 253 253 253 253 254 254 254 253 253 253 253 253 253 253 253 254 254 255 256 256 257 259 260 261 265 266 266 266 267 267 270 273 282 283 283 284 284 284 283 283 282 282
252 252 252 252 252 252 252 252 253 253 252 252 252 252 252 252 252 253 254 255 256 256 257 258 260 261 265 266 266 266 267 268 271 273 275 275 275 278 279 279 280 280 280
250 250 250 250 250 251 251 252 252 252 252 252 251 252 252 252 252 252 253 254 255 255 255 256 258 260 262 265 266 266 266 266 267 269 270 270 270 271 271 271 272 272 274
250 250 250 250 250 250 250 250 250 251 251 251 251 251 252 251 252 252 252 253 254 254 255 255 256 259 261 263 265 267 268 268 265 266 267 267 266 267 267 267 268 269 268

GFSGL_sfc_thetae_003.txt.gz
Theta_e
275 275 274 274 273 272 272 272 272 275 275 275 276 281 283 284 292 291 291 291 293 296 296 307 309 310 309 309 308 307 307 308 303 291 294 299 296 297 297 300 301 304 306
274 273 273 273 272 271 270 270 271 271 272 274 275 277 279 283 290 290 289 290 290 294 298 304 307 308 308 309 307 307 306 308 302 293 293 295 296 294 295 297 295 296 298
272 272 272 271 271 270 270 270 270 271 271 271 272 274 277 280 281 290 289 289 289 290 295 296 306 307 306 308 307 307 307 307 301 296 290 294 293 294 292 290 291 292 291
270 270 270 270 270 269 270 270 269 269 269 270 271 274 277 278 280 281 288 288 289 290 293 294 306 306 306 306 306 306 306 305 299 296 296 294 295 292 295 294 290 289 291
268 268 269 270 270 269 268 268 269 269 269 270 271 275 276 277 278 280 285 288 288 289 289 294 307 305 302 306 306 305 304 303 298 297 295 293 292 291 293 294 293 293 287
267 268 269 268 268 268 267 267 267 268 268 269 270 271 274 276 279 282 284 287 289 287 288 292 300 299 298 301 303 304 304 295 295 295 294 293 292 293 294 294 292 291 289
266 267 267 267 266 266 266 266 266 266 267 268 268 269 271 275 279 281 284 284 288 289 288 288 291 302 299 301 301 301 300 300 299 298 292 295 292 294 294 292 291 292 293
265 265 266 265 264 265 264 264 265 266 266 267 267 269 270 275 279 280 283 283 285 288 288 288 290 301 301 300 300 298 297 298 298 299 296 296 296 296 294 295 291 289 287
264 264 264 263 262 262 261 263 264 265 266 266 267 267 268 271 278 280 281 284 287 287 288 289 291 299 299 299 298 295 295 295 297 297 298 297 297 297 295 292 289 288 283
263 263 263 262 260 261 262 264 267 267 268 268 268 268 269 271 278 281 283 284 286 286 288 289 290 298 297 299 299 296 293 293 292 290 292 294 295 295 294 293 290 289 284
262 262 260 260 260 263 264 265 266 267 269 269 268 268 270 273 276 281 285 285 286 286 288 290 296 297 297 298 299 296 296 294 293 291 291 290 290 291 292 292 292 292 289
260 258 257 258 261 263 263 264 265 266 268 271 268 269 273 276 280 282 286 288 289 287 288 294 298 296 297 298 298 298 298 294 293 292 290 289 288 289 290 291 291 293 294
255 254 257 260 261 262 262 263 263 265 267 268 272 276 279 281 281 284 285 287 289 289 290 295 297 296 296 297 298 296 293 294 293 291 291 290 290 291 290 290 289 285 282
253 255 260 260 260 261 262 263 263 264 265 267 269 271 273 281 284 288 288 289 289 290 291 296 296 296 297 298 295 295 294 296 294 294 293 292 291 289 289 290 288 288 288
254 257 259 259 259 260 261 261 263 265 267 267 268 271 270 273 278 285 289 289 290 291 292 292 293 295 294 296 295 295 294 295 294 295 293 291 290 288 289 289 288 287 288
253 256 258 258 258 260 259 259 264 266 268 269 270 271 269 275 278 283 288 290 293 294 290 290 291 293 293 294 294 293 295 292 295 295 294 292 290 289 288 288 289 287 287
252 255 257 258 258 257 257 257 256 259 264 265 267 270 269 273 275 277 283 290 294 293 290 290 291 291 293 293 293 293 293 293 294 293 293 291 291 290 288 287 288 287 286
252 255 256 256 257 257 257 256 257 255 255 256 262 266 265 269 271 272 275 286 284 273 281 288 289 290 291 291 292 292 293 292 291 292 292 290 290 289 287 287 287 287 287
253 254 255 256 257 257 256 256 256 255 255 255 256 262 260 264 266 266 266 261 262 264 265 266 268 280 290 291 291 291 291 290 291 290 290 289 289 288 288 288 288 288 288
252 254 254 254 255 255 255 255 255 254 254 254 254 259 258 257 256 256 257 257 259 260 263 264 265 266 268 274 288 290 289 289 289 289 289 289 289 288 288 288 288 287 287
251 252 253 253 254 254 254 254 254 254 253 253 254 257 263 255 254 255 255 256 256 258 260 264 264 265 266 267 270 281 287 289 289 289 289 288 288 287 288 288 287 287 287
250 250 252 252 253 253 253 254 253 253 253 252 253 254 260 254 254 254 255 255 256 257 259 261 264 265 265 265 266 268 271 272 280 287 289 289 288 288 288 288 287 287 287
250 250 251 251 252 252 253 253 253 252 252 252 252 253 253 252 253 253 253 255 256 257 258 260 262 263 266 266 266 266 267 268 271 278 286 287 287 287 287 287 287 286 286
248 249 250 250 250 251 251 251 252 252 252 252 252 252 252 252 252 252 253 254 255 256 257 259 261 262 263 266 267 266 267 268 270 272 275 276 278 282 284 285 285 285 285
243 247 247 248 248 249 249 250 251 251 251 251 251 251 252 252 252 252 253 254 255 255 256 258 259 262 262 264 266 267 266 266 267 269 270 270 271 272 273 274 275 276 277
246 247 245 247 248 248 248 249 249 250 250 250 251 251 251 251 252 252 252 253 254 255 256 257 258 262 263 263 265 268 269 268 265 266 267 267 267 267 268 268 269 270 270

GFSGL_sfc_thetae_009.txt.gz
Theta_e
274 273 272 272 272 272 272 272 272 273 273 272 272 272 272 272 272 272 272 272 274 277 282 285 291 292 293 295 296 298 298 295 307 294 305 313 312 311 311 315 310 313 310
272 271 271 271 270 270 270 271 272 271 272 272 271 271 271 271 271 271 271 272 273 277 280 280 290 291 291 292 295 296 296 296 309 300 306 309 310 311 311 312 310 313 312
270 270 269 269 269 269 270 270 271 271 271 270 270 269 269 270 270 271 271 271 273 276 279 281 285 289 288 289 292 296 295 299 309 304 304 310 309 309 309 309 309 310 310
269 268 268 268 268 269 269 269 270 269 268 268 269 269 270 270 270 271 271 272 273 276 278 280 282 287 289 288 289 292 294 306 305 304 304 306 307 307 309 306 304 307 301
267 267 267 268 268 268 268 268 268 268 267 268 268 268 269 269 270 270 271 272 273 275 278 279 282 284 288 289 287 286 292 292 303 303 301 301 302 304 304 304 303 306 295
266 267 267 267 267 266 267 266 266 266 266 265 266 267 267 269 272 274 275 274 274 274 276 278 280 283 286 288 289 290 292 291 299 301 301 299 299 303 303 304 303 300 297
266 265 265 265 264 264 264 264 264 263 264 265 266 267 267 268 272 274 275 274 274 275 275 277 279 282 284 286 287 289 291 294 303 303 297 301 297 302 303 302 299 300 301
264 263 264 263 262 262 262 262 262 263 264 264 265 265 267 269 274 275 276 274 274 274 275 277 278 280 283 285 285 285 287 299 302 304 302 302 301 304 304 304 298 295 295
263 262 262 262 260 260 258 260 263 262 262 263 265 265 265 266 273 276 277 274 273 273 275 277 279 279 282 284 284 284 285 296 300 300 302 302 301 303 303 299 294 294 290
261 261 261 260 258 257 259 261 262 261 263 264 263 265 266 267 273 276 278 275 272 273 274 276 279 279 282 285 284 285 285 291 297 291 298 299 300 300 300 301 298 296 294
260 260 259 259 257 258 260 261 260 261 262 261 262 264 266 269 269 275 277 276 274 273 273 275 278 282 283 286 288 285 285 291 296 294 295 296 297 298 299 301 301 301 297
259 257 255 255 257 260 259 259 260 260 260 260 261 264 266 267 270 272 275 276 279 275 274 277 279 283 287 289 289 290 290 291 296 295 294 294 295 296 298 299 300 303 303
253 252 253 256 258 259 258 259 259 260 260 261 263 262 263 267 267 270 272 275 276 275 279 279 282 285 288 289 290 290 288 290 295 293 293 294 296 298 297 294 295 292 289
249 252 257 256 257 258 260 260 259 260 261 263 262 261 263 264 265 268 271 271 273 274 276 280 284 286 287 287 286 288 290 294 295 295 294 295 296 295 294 294 293 292 291
252 255 255 256 256 257 259 259 261 263 265 263 263 263 263 262 266 271 271 270 271 274 275 277 281 283 284 284 285 287 291 294 295 295 295 293 293 293 293 294 294 292 293
251 254 254 255 255 257 257 257 263 265 267 267 268 268 265 268 270 270 271 272 275 276 278 277 282 283 283 285 286 287 292 293 295 295 294 293 292 292 292 291 292 292 292
245 251 253 254 254 255 255 255 255 259 263 264 266 268 268 268 268 269 269 269 270 269 265 265 273 285 286 287 288 290 293 295 295 294 294 292 292 291 290 290 290 291 291
244 251 251 251 252 253 254 254 255 254 254 255 260 264 267 266 267 267 266 263 259 261 262 263 264 266 269 276 290 292 294 294 295 294 293 291 291 291 290 290 290 290 291
249 249 249 250 251 252 253 253 254 254 254 254 255 258 262 263 264 264 263 257 257 258 260 261 263 265 266 267 269 290 293 292 293 293 291 290 290 290 290 291 291 290 290
245 251 250 247 249 250 251 252 253 253 254 254 254 253 260 256 255 255 256 256 257 258 259 261 262 264 265 265 266 269 290 290 291 291 290 290 290 290 290 290 290 289 289
244 245 249 246 246 249 250 250 251 252 253 253 253 255 264 254 254 254 255 256 257 258 259 262 263 263 266 265 265 266 269 288 291 291 290 290 290 289 291 291 290 289 289
243 243 243 242 248 249 249 250 250 251 251 252 253 254 260 254 254 254 255 256 257 259 260 262 263 264 265 266 265 265 266 267 270 278 290 290 290 290 290 290 289 289 289
247 247 246 245 246 248 248 248 249 250 251 251 252 252 253 253 253 254 254 255 257 259 260 261 264 264 265 267 267 265 264 265 267 271 277 288 289 289 290 289 289 289 288
245 245 246 244 244 245 245 247 248 249 250 250 250 251 252 252 253 253 254 255 257 258 260 261 263 264 265 265 267 267 265 266 268 269 273 280 286 287 288 288 289 289 289
240 243 243 242 238 242 243 244 247 246 248 250 250 250 251 252 252 253 254 255 256 258 259 261 262 264 265 265 266 268 268 265 265 268 268 270 271 274 278 284 285 285 286
243 244 241 242 242 240 240 243 243 246 247 249 249 249 250 251 252 252 253 254 255 257 258 260 261 262 266 266 266 267 270 269 265 265 266 266 267 267 270 271 273 275 279

GFSGL_sfc_thetae_012.txt.gz
Theta_e
273 272 271 271 271 271 271 271 271 272 272 272 272 272 272 272 272 272 272 272 271 272 272 272 274 278 281 286 293 294 294 294 290 292 296 298 301 315 313 319 312 317 312
272 271 270 270 270 269 269 270 271 271 271 271 271 271 270 270 270 270 270 271 270 270 271 272 273 279 281 283 291 292 292 294 293 291 295 297 297 313 313 316 314 315 314
270 269 269 269 268 268 269 269 270 270 270 269 269 269 269 270 269 270 270 270 270 271 271 271 273 276 280 281 290 290 291 293 295 293 293 297 300 312 313 311 313 313 313
268 268 267 268 268 268 268 269 269 268 268 268 268 268 268 268 269 269 270 270 270 271 272 273 273 275 278 281 283 288 289 288 289 292 291 292 294 310 311 308 307 310 309
267 267 267 267 268 268 268 268 267 267 267 267 267 266 267 267 269 269 270 271 271 271 272 273 275 277 279 281 282 284 287 286 286 285 289 292 295 306 305 308 306 306 306
266 267 267 266 267 266 266 266 265 265 265 265 265 266 267 267 271 273 273 272 273 273 273 274 275 276 278 282 283 286 287 286 284 284 286 287 303 305 306 304 304 302 298
267 265 265 265 264 264 264 263 263 263 263 265 265 265 265 266 270 273 274 274 274 274 273 273 274 276 277 279 282 285 286 290 289 286 285 285 304 307 306 303 302 301 301
265 263 263 263 262 262 262 261 262 262 263 263 263 264 264 265 270 272 274 274 274 274 274 274 274 274 276 277 279 282 284 285 286 287 287 289 293 309 307 306 303 301 303
263 262 262 262 260 260 258 260 261 262 261 261 263 263 262 263 269 272 274 272 272 274 276 274 274 274 276 279 279 279 280 282 287 289 290 292 295 305 307 305 299 297 297
261 261 261 260 258 257 259 258 261 260 262 263 262 263 263 263 269 272 273 272 270 272 275 275 276 274 277 280 279 280 279 281 284 285 286 299 302 303 302 305 302 297 298
260 260 259 259 257 257 258 259 259 260 261 260 262 264 265 266 267 271 273 271 271 271 273 275 275 277 279 280 282 280 280 284 285 285 285 299 302 302 303 304 304 301 298
258 257 256 254 255 259 256 258 259 259 259 260 262 264 265 266 269 270 272 273 274 272 272 274 276 278 280 282 283 284 285 286 285 284 284 296 299 300 301 302 303 303 304
253 252 250 254 257 257 256 257 258 259 260 261 263 263 263 266 266 269 271 273 273 272 273 274 278 280 282 282 284 286 285 285 284 284 285 296 299 301 301 301 302 301 300
252 255 257 256 256 257 258 259 258 260 260 263 262 262 262 265 265 268 269 269 271 271 272 272 274 278 281 282 283 287 285 285 285 285 289 296 299 298 298 298 298 298 295
255 257 255 254 253 256 258 257 260 262 265 264 263 263 262 263 266 270 270 268 268 271 271 271 273 275 278 281 283 285 285 285 285 286 293 293 294 295 295 296 297 295 294
254 254 253 254 254 256 256 256 262 265 267 267 268 267 265 269 270 270 270 270 270 270 265 266 271 271 280 281 283 284 284 285 286 289 293 293 293 294 293 294 295 294 294
248 252 252 253 253 253 253 254 253 257 263 264 265 267 269 268 269 269 268 267 268 265 261 262 263 265 267 270 274 284 284 286 289 292 292 293 293 293 292 292 292 293 293
243 251 249 250 250 251 251 252 253 252 252 254 260 264 267 267 267 267 267 263 259 261 259 261 262 263 266 267 268 270 272 287 290 292 292 292 291 291 291 291 291 292 292
249 248 246 247 248 249 250 250 251 251 252 253 254 258 262 264 264 264 264 257 257 258 259 261 263 263 264 266 266 267 269 270 289 291 291 290 290 291 290 291 292 292 291
245 251 248 244 246 247 249 249 250 250 251 251 253 253 260 256 255 256 257 257 257 258 260 260 263 264 264 266 265 265 266 268 285 291 290 290 290 291 291 290 291 291 290
245 244 248 244 244 244 244 246 248 248 249 250 252 254 265 255 254 255 256 256 256 258 259 260 263 264 264 265 266 264 264 266 268 285 289 290 290 289 291 292 291 291 291
245 243 242 241 246 247 245 246 246 247 248 249 250 253 260 254 254 255 255 256 257 258 260 261 262 264 265 265 266 265 263 264 265 267 272 289 289 290 290 290 290 291 290
248 247 245 244 244 246 246 244 246 247 248 247 249 251 252 253 253 254 254 256 257 258 260 261 262 263 265 266 266 267 264 263 265 267 268 274 289 289 289 289 289 289 289
247 246 246 243 243 243 243 243 246 246 247 247 248 249 250 251 253 253 254 255 256 258 260 261 262 262 265 265 266 268 268 266 265 267 268 272 286 288 289 289 289 289 289
243 245 244 242 238 240 241 242 245 241 243 247 247 248 249 250 252 253 254 254 256 257 259 260 262 263 264 266 266 266 269 266 265 266 267 268 270 273 282 286 287 288 289
244 244 242 242 241 239 239 241 240 243 242 246 246 247 249 249 251 252 253 253 254 256 258 260 262 262 263 266 266 267 269 269 266 265 266 266 266 267 269 271 277 282 285